Lawrence, KS

12:11 AM CDT on October 20, 2017 (GMT -0500)
Lawrence Municipal

Weather History for KLWC - March, 2013

Change the Weather History Date:

Wednesday, March 6, 2013

  Actual Average Record
Temperature  
Mean Temperature 29 °F 41 °F  
Max Temperature 38 °F 53 °F 80 °F (2017)
Min Temperature 19 °F 29 °F 12 °F (2003)
Degree Days  
Heating Degree Days 36 24  
Month to date heating degree days 202 152  
Since 1 July heating degree days 4033 4167  
Moisture  
Dew Point 19 °F    
Average Humidity 67    
Maximum Humidity 81    
Minimum Humidity 52    
Precipitation  
Precipitation 0.00 in 0.08 in 0.21 in (2005)
Month to date precipitation T 0.47  
Year to date precipitation 2.72 2.78  
Sea Level Pressure  
Sea Level Pressure 30.40 in    
Wind  
Wind Speed 6 mph (ENE)    
Max Wind Speed 14 mph    
Max Gust Speed 17 mph    
Visibility 9 miles    
Events      
T = Trace of Precipitation, MM = Missing Value Source: NWS Daily Summary

Daily Weather History Graph

Daily Weather History Graph

Search for Another Location

Airport or City:

Trip Planner

Search our weather history database for the weather conditions in past years. The results will help you decide how hot, cold, wet, or windy it might be!

Date:

Astronomy

Mar. 06, 2013 Rise Set
Actual Time 6:45 AM CST 6:19 PM CST
Civil Twilight 6:18 AM CST 6:45 PM CST
Nautical Twilight 5:48 AM CST 7:16 PM CST
Astronomical Twilight 5:17 AM CST 7:47 PM CST
Moon 2:53 AM CST (3/6) 1:03 PM CST (3/6)
Length of Visible Light 12h 26m
Length of Day
11h 33m
Waning Crescent, 29% of the Moon is Illuminated
Mar 6
Waning Crescent
Mar 11
New
Mar 19
First Quarter
Mar 27
Full
Apr 2
Last Quarter

Hourly Weather History & Observations

Time (CST) Temp. Windchill Dew Point Humidity Pressure Visibility Wind Dir Wind Speed Gust Speed Precip Events Conditions
12:52 AM 23.0 °F 13.9 °F 17.1 °F 78% 30.41 in 10.0 mi NW 8.1 mph - N/A   Clear
1:52 AM 21.0 °F 14.6 °F 16.0 °F 81% 30.43 in 10.0 mi NW 4.6 mph - N/A   Clear
2:32 AM 21.2 °F 12.6 °F 15.8 °F 80% 30.40 in 10.0 mi NNW 6.9 mph - N/A   Mostly Cloudy
2:52 AM 24.1 °F 17.0 °F 18.0 °F 77% 30.43 in 10.0 mi WNW 5.8 mph - N/A   Overcast
3:52 AM 25.0 °F 16.3 °F 18.0 °F 75% 30.43 in 10.0 mi NW 8.1 mph - N/A   Overcast
4:52 AM 26.1 °F 15.6 °F 17.1 °F 69% 30.44 in 10.0 mi North 11.5 mph - N/A   Overcast
5:52 AM 25.0 °F 17.1 °F 16.0 °F 69% 30.45 in 10.0 mi North 6.9 mph - N/A   Overcast
6:19 AM 21.2 °F 14.9 °F 15.8 °F 80% 30.43 in 9.0 mi NNW 4.6 mph - N/A   Scattered Clouds
6:52 AM 24.1 °F 19.7 °F 16.0 °F 71% 30.46 in 8.0 mi North 3.5 mph - N/A   Clear
7:52 AM 25.0 °F 20.7 °F 18.0 °F 75% 30.47 in 7.0 mi NNW 3.5 mph - N/A   Clear
8:52 AM 28.9 °F 21.9 °F 18.0 °F 64% 30.47 in 9.0 mi NE 6.9 mph - N/A   Clear
9:52 AM 30.0 °F 22.4 °F 18.0 °F 61% 30.47 in 10.0 mi East 8.1 mph - N/A   Clear
10:52 AM 32.0 °F 26.4 °F 19.9 °F 61% 30.46 in 10.0 mi ENE 5.8 mph - N/A   Clear
11:52 AM 33.1 °F 28.7 °F 19.9 °F 59% 30.46 in 10.0 mi ESE 4.6 mph - N/A   Clear
12:52 PM 34.0 °F - 19.0 °F 54% 30.44 in 10.0 mi Calm Calm - N/A   Clear
1:52 PM 36.0 °F 31.1 °F 21.0 °F 55% 30.41 in 9.0 mi SSE 5.8 mph - N/A   Clear
2:52 PM 37.0 °F 32.4 °F 21.0 °F 52% 30.38 in 9.0 mi SE 5.8 mph - N/A   Clear
3:52 PM 37.0 °F 32.4 °F 21.0 °F 52% 30.37 in 9.0 mi SSE 5.8 mph - N/A   Clear
4:52 PM 37.0 °F 32.4 °F 21.0 °F 52% 30.36 in 8.0 mi SE 5.8 mph - N/A   Clear
5:52 PM 33.1 °F 27.7 °F 21.0 °F 61% 30.34 in 8.0 mi SE 5.8 mph - N/A   Clear
6:52 PM 28.9 °F 22.8 °F 21.9 °F 75% 30.33 in 7.0 mi ESE 5.8 mph - N/A   Clear
7:52 PM 28.0 °F 22.8 °F 21.9 °F 78% 30.33 in 7.0 mi East 4.6 mph - N/A   Clear
8:52 PM 30.0 °F 23.2 °F 21.0 °F 69% 30.31 in 7.0 mi East 6.9 mph - N/A   Clear
9:52 PM 28.9 °F 21.1 °F 21.0 °F 72% 30.32 in 7.0 mi SE 8.1 mph - N/A   Clear
10:52 PM 27.0 °F 19.5 °F 21.0 °F 78% 30.32 in 7.0 mi ESE 6.9 mph - N/A   Clear
11:52 PM 26.1 °F 17.6 °F 19.9 °F 78% 30.30 in 8.0 mi ESE 8.1 mph - N/A   Clear